| time (UTC) | temp F | wind direction | speed MPH | gust MPH | rain 1hr in | rain 24hr in | rain mn in | humidity % | barometer mb |
| 20260901162942 | 77 | 91 | 3.0 | 13.0 | 0.00 | 0.00 | 0.00 | 78 | 1016.6 |
| 20260901162436 | 77 | 101 | 2.0 | 13.0 | 0.00 | 0.00 | 0.00 | 78 | 1016.7 |
| 20260901161935 | 77 | 110 | 6.0 | 13.0 | 0.00 | 0.00 | 0.00 | 78 | 1016.5 |
| 20260901161435 | 77 | 98 | 4.0 | 13.0 | 0.00 | 0.00 | 0.00 | 77 | 1016.3 |
| 20260901160935 | 77 | 70 | 4.0 | 13.0 | 0.00 | 0.00 | 0.00 | 78 | 1016.5 |
| 20260901160436 | 77 | 58 | 4.0 | 11.0 | 0.00 | 0.00 | 0.00 | 78 | 1016.3 |
| 20260901155936 | 77 | 75 | 4.0 | 11.0 | 0.00 | 0.00 | 0.00 | 78 | 1016.2 |
| 20260901155424 | 77 | 100 | 4.0 | 14.0 | 0.00 | 0.00 | 0.00 | 78 | 1016.0 |
| 20260901154924 | 77 | 71 | 6.0 | 14.0 | 0.00 | 0.00 | 0.00 | 77 | 1016.3 |
| 20260901154655 | 78 | 57 | 4.0 | 14.0 | 0.00 | 0.00 | 0.00 | 77 | 1016.2 |
| 20260901153925 | 77 | 103 | 8.0 | 15.0 | 0.00 | 0.00 | 0.00 | 76 | 1016.4 |
| 20260901153424 | 77 | 70 | 5.0 | 15.0 | 0.00 | 0.00 | 0.00 | 78 | 1016.2 |
| 20260901152923 | 77 | 70 | 6.0 | 16.0 | 0.00 | 0.00 | 0.00 | 77 | 1016.3 |
| 20260901152423 | 77 | 30 | 6.0 | 16.0 | 0.00 | 0.00 | 0.00 | 77 | 1016.1 |
| 20260901151912 | 77 | 102 | 6.0 | 15.0 | 0.00 | 0.00 | 0.00 | 78 | 1016.1 |
| 20260901151411 | 77 | 67 | 6.0 | 14.0 | 0.00 | 0.00 | 0.00 | 78 | 1015.8 |
| 20260901150911 | 77 | 72 | 5.0 | 13.0 | 0.00 | 0.00 | 0.00 | 77 | 1016.0 |
| 20260901150644 | 77 | 91 | 7.0 | 14.0 | 0.00 | 0.00 | 0.00 | 78 | 1015.9 |
| 20260901145912 | 77 | 86 | 4.0 | 14.0 | 0.00 | 0.00 | 0.00 | 79 | 1015.7 |
| 20260901145412 | 78 | 41 | 6.0 | 14.0 | 0.00 | 0.00 | 0.00 | 79 | 1015.8 |
| 20260901144912 | 78 | 90 | 4.0 | 14.0 | 0.00 | 0.00 | 0.00 | 79 | 1015.6 |
| 20260901144405 | 78 | 122 | 7.0 | 14.0 | 0.00 | 0.00 | 0.00 | 79 | 1015.7 |
| 20260901143859 | 77 | 90 | 6.0 | 14.0 | 0.00 | 0.00 | 0.00 | 78 | 1015.8 |
| 20260901143359 | 77 | 86 | 8.0 | 14.0 | 0.00 | 0.00 | 0.00 | 78 | 1015.6 |
| 20260901142859 | 77 | 76 | 4.0 | 15.0 | 0.00 | 0.00 | 0.00 | 79 | 1015.8 |
| 20260901142400 | 77 | 99 | 6.0 | 15.0 | 0.00 | 0.00 | 0.00 | 78 | 1015.8 |
| 20260901141901 | 78 | 58 | 7.0 | 14.0 | 0.00 | 0.00 | 0.00 | 79 | 1015.7 |
| 20260901141400 | 77 | 84 | 6.0 | 14.0 | 0.00 | 0.00 | 0.00 | 78 | 1015.7 |
| 20260901140855 | 77 | 72 | 7.0 | 14.0 | 0.00 | 0.00 | 0.00 | 78 | 1015.8 |
| 20260901140347 | 77 | 114 | 4.0 | 10.0 | 0.00 | 0.00 | 0.00 | 78 | 1015.8 |
| 20260901135847 | 77 | 67 | 4.0 | 10.0 | 0.00 | 0.00 | 0.00 | 78 | 1015.4 |
| 20260901135353 | 77 | 102 | 6.0 | 14.0 | 0.00 | 0.00 | 0.00 | 76 | 1015.8 |
| 20260901135347 | 77 | 55 | 5.0 | 14.0 | 0.00 | 0.00 | 0.00 | 77 | 1015.7 |
| 20260901134347 | 77 | 91 | 6.0 | 14.0 | 0.00 | 0.00 | 0.00 | 76 | 1015.5 |
| 20260901133848 | 77 | 60 | 8.0 | 14.0 | 0.00 | 0.00 | 0.00 | 76 | 1015.5 |
| 20260901133342 | 77 | 97 | 6.0 | 13.0 | 0.00 | 0.00 | 0.00 | 75 | 1015.6 |
| 20260901132835 | 77 | 95 | 4.0 | 14.0 | 0.00 | 0.00 | 0.00 | 75 | 1015.6 |
| 20260901132335 | 77 | 108 | 7.0 | 14.0 | 0.00 | 0.00 | 0.00 | 75 | 1016.1 |
| 20260901131836 | 77 | 70 | 6.0 | 14.0 | 0.00 | 0.00 | 0.00 | 75 | 1015.8 |
| 20260901131606 | 77 | 93 | 6.0 | 14.0 | 0.00 | 0.00 | 0.00 | 76 | 1015.7 |
| 20260901130836 | 77 | 121 | 4.0 | 15.0 | 0.00 | 0.00 | 0.00 | 77 | 1015.7 |
| 20260901130335 | 77 | 72 | 6.0 | 15.0 | 0.00 | 0.00 | 0.00 | 77 | 1015.7 |
| 20260901125823 | 77 | 83 | 6.0 | 15.0 | 0.00 | 0.00 | 0.00 | 77 | 1015.7 |
| 20260901125324 | 78 | 119 | 6.0 | 13.0 | 0.00 | 0.00 | 0.00 | 78 | 1015.4 |
| 20260901125054 | 77 | 85 | 4.0 | 15.0 | 0.00 | 0.00 | 0.00 | 78 | 1015.7 |
| 20260901124323 | 77 | 71 | 4.0 | 16.0 | 0.00 | 0.00 | 0.00 | 77 | 1015.6 |
| 20260901124055 | 77 | 86 | 4.0 | 16.0 | 0.00 | 0.00 | 0.00 | 78 | 1015.8 |
| 20260901123324 | 77 | 68 | 9.0 | 16.0 | 0.00 | 0.00 | 0.00 | 79 | 1015.8 |
| 20260901123056 | 77 | 76 | 4.0 | 16.0 | 0.00 | 0.00 | 0.00 | 78 | 1016.1 |
| 20260901122323 | 77 | 99 | 7.0 | 15.0 | 0.00 | 0.00 | 0.00 | 78 | 1016.1 |
| 20260901121823 | 77 | 90 | 4.0 | 15.0 | 0.00 | 0.00 | 0.00 | 78 | 1016.0 |
| 20260901121325 | 77 | 66 | 6.0 | 17.0 | 0.00 | 0.00 | 0.00 | 78 | 1016.1 |
| 20260901121054 | 77 | 87 | 11.0 | 17.0 | 0.00 | 0.00 | 0.00 | 77 | 1016.1 |
| 20260901120324 | 77 | 102 | 8.0 | 16.0 | 0.00 | 0.00 | 0.00 | 77 | 1016.0 |
| 20260901120055 | 77 | 110 | 4.0 | 16.0 | 0.00 | 0.00 | 0.00 | 77 | 1016.3 |
| 20260901115325 | 77 | 91 | 6.0 | 14.0 | 0.00 | 0.00 | 0.00 | 77 | 1016.1 |
| 20260901114824 | 77 | 106 | 6.0 | 15.0 | 0.00 | 0.00 | 0.00 | 78 | 1016.2 |
| 20260901114325 | 77 | 126 | 4.0 | 16.0 | 0.00 | 0.00 | 0.00 | 78 | 1016.2 |
| 20260901113824 | 77 | 99 | 5.0 | 16.0 | 0.00 | 0.00 | 0.00 | 77 | 1016.3 |
| 20260901113556 | 77 | 78 | 11.0 | 16.0 | 0.00 | 0.00 | 0.00 | 77 | 1016.3 |
| 20260901112825 | 77 | 104 | 8.0 | 16.0 | 0.00 | 0.00 | 0.00 | 77 | 1016.0 |
| 20260901112325 | 77 | 94 | 3.0 | 20.0 | 0.00 | 0.00 | 0.00 | 76 | 1016.4 |
| 20260901112055 | 77 | 88 | 7.0 | 20.0 | 0.00 | 0.00 | 0.00 | 76 | 1016.4 |
| 20260901111600 | 78 | 85 | 4.0 | 17.0 | 0.00 | 0.00 | 0.00 | 79 | 1016.4 |
| 20260901111324 | 77 | 80 | 9.0 | 15.0 | 0.00 | 0.00 | 0.00 | 77 | 1016.5 |
| 20260901110323 | 78 | 87 | 7.0 | 17.0 | 0.00 | 0.00 | 0.00 | 78 | 1016.4 |
| 20260901105823 | 78 | 107 | 6.0 | 17.0 | 0.00 | 0.00 | 0.00 | 78 | 1016.6 |
| 20260901105325 | 78 | 92 | 11.0 | 20.0 | 0.00 | 0.00 | 0.00 | 77 | 1016.8 |
| 20260901104824 | 78 | 82 | 9.0 | 16.0 | 0.00 | 0.00 | 0.00 | 79 | 1016.5 |
| 20260901104323 | 78 | 68 | 5.0 | 16.0 | 0.00 | 0.00 | 0.00 | 79 | 1016.5 |
| 20260901103823 | 78 | 111 | 7.0 | 16.0 | 0.00 | 0.00 | 0.00 | 79 | 1016.8 |
| 20260901103323 | 78 | 92 | 5.0 | 17.0 | 0.00 | 0.00 | 0.00 | 78 | 1016.5 |
| 20260901103042 | 78 | 80 | 11.0 | 17.0 | 0.00 | 0.00 | 0.00 | 78 | 1016.5 |
| 20260901102311 | 78 | 114 | 5.0 | 16.0 | 0.00 | 0.00 | 0.00 | 77 | 1016.8 |
| 20260901101812 | 78 | 99 | 5.0 | 16.0 | 0.00 | 0.00 | 0.00 | 77 | 1016.7 |
| 20260901101312 | 78 | 119 | 8.0 | 16.0 | 0.00 | 0.01 | 0.00 | 76 | 1016.6 |
| 20260901100812 | 78 | 101 | 11.0 | 16.0 | 0.00 | 0.01 | 0.00 | 77 | 1016.7 |
| 20260901100313 | 78 | 69 | 11.0 | 19.0 | 0.00 | 0.02 | 0.00 | 77 | 1016.7 |
| 20260901095812 | 78 | 121 | 9.0 | 19.0 | 0.00 | 0.02 | 0.02 | 76 | 1016.9 |
| 20260901095312 | 78 | 68 | 8.0 | 16.0 | 0.00 | 0.02 | 0.02 | 77 | 1016.9 |
| 20260901094812 | 78 | 103 | 8.0 | 17.0 | 0.00 | 0.02 | 0.02 | 77 | 1016.8 |
| 20260901094311 | 78 | 95 | 6.0 | 20.0 | 0.00 | 0.02 | 0.02 | 78 | 1016.9 |
| 20260901093812 | 78 | 76 | 9.0 | 23.0 | 0.00 | 0.02 | 0.02 | 77 | 1017.0 |
| 20260901093311 | 78 | 124 | 5.0 | 23.0 | 0.00 | 0.02 | 0.02 | 77 | 1017.1 |
| 20260901092801 | 78 | 83 | 8.0 | 21.0 | 0.00 | 0.02 | 0.02 | 78 | 1017.1 |
| 20260901092301 | 78 | 81 | 13.0 | 21.0 | 0.00 | 0.02 | 0.02 | 77 | 1017.2 |
| 20260901092019 | 78 | 107 | 8.0 | 17.0 | 0.00 | 0.02 | 0.02 | 77 | 1017.2 |
| 20260901091248 | 78 | 125 | 5.0 | 19.0 | 0.00 | 0.02 | 0.02 | 78 | 1017.3 |
| 20260901090753 | 78 | 93 | 9.0 | 21.0 | 0.00 | 0.02 | 0.02 | 76 | 1017.0 |
| 20260901090748 | 78 | 90 | 10.0 | 19.0 | 0.00 | 0.02 | 0.02 | 77 | 1017.4 |
| 20260901085748 | 78 | 122 | 5.0 | 21.0 | 0.00 | 0.05 | 0.02 | 77 | 1017.1 |
| 20260901085518 | 78 | 90 | 10.0 | 20.0 | 0.00 | 0.05 | 0.02 | 77 | 1017.4 |
| 20260901084748 | 78 | 101 | 8.0 | 20.0 | 0.00 | 0.05 | 0.02 | 76 | 1017.3 |
| 20260901084248 | 78 | 105 | 11.0 | 19.0 | 0.00 | 0.05 | 0.02 | 75 | 1017.3 |
| 20260901083748 | 78 | 58 | 13.0 | 20.0 | 0.00 | 0.05 | 0.02 | 76 | 1017.1 |
| 20260901083248 | 78 | 89 | 7.0 | 20.0 | 0.00 | 0.05 | 0.02 | 77 | 1017.2 |
| 20260901082747 | 78 | 77 | 9.0 | 19.0 | 0.00 | 0.05 | 0.02 | 77 | 1017.3 |
| 20260901082248 | 78 | 110 | 9.0 | 20.0 | 0.00 | 0.05 | 0.02 | 76 | 1017.7 |
| 20260901081737 | 78 | 125 | 12.0 | 20.0 | 0.00 | 0.05 | 0.02 | 75 | 1017.5 |
| 20260901081236 | 78 | 59 | 11.0 | 20.0 | 0.00 | 0.05 | 0.02 | 75 | 1017.5 |
| 20260901080734 | 78 | 86 | 10.0 | 19.0 | 0.00 | 0.05 | 0.02 | 75 | 1017.6 |
| 20260901080506 | 78 | 64 | 9.0 | 24.0 | 0.00 | 0.05 | 0.02 | 77 | 1017.4 |
| 20260901075734 | 78 | 49 | 12.0 | 24.0 | 0.00 | 0.05 | 0.02 | 78 | 1017.4 |
| 20260901075231 | 78 | 68 | 14.0 | 20.0 | 0.00 | 0.05 | 0.02 | 78 | 1017.4 |
| 20260901074730 | 78 | 69 | 7.0 | 23.0 | 0.00 | 0.05 | 0.02 | 78 | 1017.4 |
| 20260901074231 | 78 | 99 | 12.0 | 23.0 | 0.00 | 0.06 | 0.02 | 77 | 1017.3 |
| 20260901073729 | 78 | 89 | 16.0 | 23.0 | 0.00 | 0.11 | 0.02 | 77 | 1017.4 |
| 20260901073229 | 78 | 78 | 13.0 | 23.0 | 0.00 | 0.11 | 0.02 | 78 | 1017.1 |
| 20260901072730 | 78 | 91 | 8.0 | 20.0 | 0.00 | 0.13 | 0.02 | 78 | 1017.3 |
| 20260901072456 | 78 | 102 | 9.0 | 20.0 | 0.00 | 0.14 | 0.02 | 78 | 1017.2 |
| 20260901071725 | 78 | 90 | 8.0 | 21.0 | 0.00 | 0.14 | 0.02 | 77 | 1017.2 |
| 20260901071227 | 79 | 103 | 10.0 | 21.0 | 0.00 | 0.14 | 0.02 | 78 | 1017.0 |
| 20260901070727 | 78 | 76 | 17.0 | 21.0 | 0.00 | 0.14 | 0.02 | 78 | 1017.0 |
| 20260901070224 | 79 | 66 | 14.0 | 21.0 | 0.00 | 0.14 | 0.02 | 78 | 1017.1 |
| 20260901065722 | 79 | 66 | 12.0 | 19.0 | 0.00 | 0.14 | 0.02 | 78 | 1017.0 |
| 20260901065223 | 78 | 71 | 11.0 | 19.0 | 0.00 | 0.14 | 0.02 | 77 | 1016.9 |
| 20260901064722 | 78 | 92 | 6.0 | 19.0 | 0.00 | 0.14 | 0.02 | 76 | 1016.9 |
| 20260901064222 | 78 | 117 | 9.0 | 19.0 | 0.00 | 0.14 | 0.02 | 75 | 1016.7 |
| 20260901063953 | 78 | 84 | 5.0 | 17.0 | 0.00 | 0.14 | 0.02 | 76 | 1016.8 |
| 20260901063221 | 78 | 111 | 9.0 | 17.0 | 0.00 | 0.14 | 0.02 | 77 | 1016.6 |
| 20260901062954 | 78 | 62 | 10.0 | 21.0 | 0.00 | 0.14 | 0.02 | 77 | 1016.7 |
| 20260901062222 | 78 | 110 | 5.0 | 21.0 | 0.00 | 0.14 | 0.02 | 77 | 1016.7 |
| 20260901061721 | 78 | 82 | 8.0 | 21.0 | 0.00 | 0.14 | 0.02 | 77 | 1016.5 |
| 20260901061222 | 79 | 72 | 12.0 | 21.0 | 0.00 | 0.14 | 0.02 | 76 | 1016.5 |
| 20260901060722 | 79 | 62 | 5.0 | 26.0 | 0.00 | 0.14 | 0.02 | 76 | 1016.9 |
| 20260901060223 | 79 | 127 | 8.0 | 26.0 | 0.00 | 0.14 | 0.02 | 76 | 1016.8 |
| 20260901055722 | 79 | 151 | 8.0 | 19.0 | 0.00 | 0.14 | 0.02 | 76 | 1016.6 |
| 20260901055222 | 79 | 100 | 7.0 | 20.0 | 0.00 | 0.14 | 0.02 | 76 | 1016.5 |
| 20260901054727 | 79 | 113 | 8.0 | 21.0 | 0.00 | 0.14 | 0.02 | 75 | 1016.5 |
| 20260901054722 | 79 | 85 | 13.0 | 17.0 | 0.00 | 0.14 | 0.02 | 75 | 1016.8 |
| 20260901053722 | 79 | 92 | 8.0 | 21.0 | 0.00 | 0.14 | 0.02 | 74 | 1016.4 |
| 20260901053453 | 79 | 98 | 8.0 | 19.0 | 0.00 | 0.14 | 0.02 | 74 | 1016.1 |
| 20260901052722 | 79 | 82 | 9.0 | 19.0 | 0.00 | 0.14 | 0.02 | 77 | 1016.3 |
| 20260901052221 | 79 | 126 | 11.0 | 19.0 | 0.00 | 0.14 | 0.02 | 77 | 1016.2 |
| 20260901051722 | 79 | 113 | 11.0 | 20.0 | 0.00 | 0.14 | 0.02 | 76 | 1016.1 |
| 20260901051223 | 79 | 86 | 8.0 | 21.0 | 0.00 | 0.14 | 0.02 | 76 | 1015.9 |
| 20260901050721 | 79 | 75 | 11.0 | 21.0 | 0.00 | 0.14 | 0.02 | 76 | 1016.2 |
| 20260901050222 | 79 | 87 | 8.0 | 24.0 | 0.00 | 0.15 | 0.02 | 77 | 1016.1 |
| 20260901045722 | 79 | 85 | 8.0 | 21.0 | 0.00 | 0.16 | 0.02 | 76 | 1016.1 |
| 20260901045222 | 79 | 120 | 8.0 | 21.0 | 0.00 | 0.16 | 0.02 | 76 | 1015.7 |
| 20260901044721 | 79 | 107 | 13.0 | 21.0 | 0.00 | 0.16 | 0.02 | 77 | 1015.8 |
| 20260901044222 | 79 | 82 | 10.0 | 23.0 | 0.00 | 0.16 | 0.02 | 77 | 1015.8 |
| 20260901043721 | 79 | 58 | 12.0 | 23.0 | 0.00 | 0.16 | 0.02 | 76 | 1015.8 |
| 20260901043221 | 79 | 86 | 11.0 | 19.0 | 0.00 | 0.16 | 0.02 | 77 | 1015.8 |
| 20260901042722 | 79 | 102 | 8.0 | 16.0 | 0.00 | 0.16 | 0.02 | 76 | 1015.7 |
| 20260901042221 | 79 | 100 | 11.0 | 17.0 | 0.00 | 0.16 | 0.02 | 75 | 1015.7 |
| 20260901041721 | 79 | 101 | 8.0 | 19.0 | 0.00 | 0.16 | 0.02 | 76 | 1015.9 |
| 20260901041222 | 79 | 64 | 11.0 | 21.0 | 0.00 | 0.16 | 0.02 | 76 | 1015.8 |
| 20260901040721 | 79 | 86 | 7.0 | 21.0 | 0.00 | 0.16 | 0.02 | 75 | 1015.7 |
| 20260901040221 | 79 | 94 | 5.0 | 19.0 | 0.00 | 0.16 | 0.02 | 74 | 1015.9 |
| 20260901035721 | 80 | 100 | 6.0 | 19.0 | 0.00 | 0.16 | 0.02 | 73 | 1015.6 |
| 20260901035454 | 80 | 72 | 6.0 | 19.0 | 0.00 | 0.16 | 0.02 | 73 | 1015.6 |
| 20260901034721 | 80 | 74 | 9.0 | 19.0 | 0.00 | 0.16 | 0.02 | 75 | 1015.5 |
| 20260901034221 | 80 | 101 | 10.0 | 19.0 | 0.00 | 0.17 | 0.02 | 75 | 1015.5 |
| 20260901033722 | 80 | 133 | 6.0 | 19.0 | 0.00 | 0.17 | 0.02 | 74 | 1015.6 |
| 20260901033222 | 80 | 123 | 5.0 | 19.0 | 0.00 | 0.17 | 0.02 | 74 | 1015.5 |
| 20260901032954 | 80 | 73 | 12.0 | 19.0 | 0.00 | 0.17 | 0.02 | 74 | 1015.4 |
| 20260901032224 | 81 | 61 | 7.0 | 19.0 | 0.00 | 0.17 | 0.02 | 73 | 1015.5 |
| 20260901031722 | 81 | 72 | 8.0 | 17.0 | 0.00 | 0.17 | 0.02 | 73 | 1015.5 |
| 20260901031453 | 81 | 101 | 8.0 | 17.0 | 0.00 | 0.17 | 0.02 | 72 | 1015.2 |
| 20260901030721 | 81 | 113 | 12.0 | 20.0 | 0.00 | 0.17 | 0.02 | 73 | 1015.5 |
| 20260901030221 | 80 | 111 | 12.0 | 17.0 | 0.00 | 0.17 | 0.02 | 72 | 1015.4 |
| 20260901025723 | 81 | 116 | 6.0 | 16.0 | 0.00 | 0.17 | 0.02 | 73 | 1015.4 |
| 20260901025222 | 81 | 73 | 6.0 | 19.0 | 0.00 | 0.17 | 0.02 | 73 | 1015.3 |
| 20260901024728 | 82 | 73 | 4.0 | 17.0 | 0.00 | 0.17 | 0.02 | 73 | 1015.1 |
| 20260901024722 | 82 | 126 | 3.0 | 19.0 | 0.00 | 0.17 | 0.02 | 74 | 1015.0 |
| 20260901023959 | 82 | 103 | 8.0 | 17.0 | 0.00 | 0.17 | 0.02 | 70 | 1015.5 |
| 20260901023722 | 82 | 108 | 5.0 | 17.0 | 0.00 | 0.17 | 0.02 | 71 | 1015.4 |
| 20260901022721 | 82 | 89 | 9.0 | 17.0 | 0.00 | 0.17 | 0.02 | 71 | 1015.4 |
| 20260901022222 | 82 | 82 | 6.0 | 17.0 | 0.00 | 0.17 | 0.02 | 72 | 1015.5 |
| 20260901021723 | 82 | 117 | 6.0 | 20.0 | 0.00 | 0.17 | 0.02 | 71 | 1015.3 |
| 20260901021221 | 82 | 50 | 7.0 | 21.0 | 0.00 | 0.17 | 0.02 | 71 | 1015.2 |
| 20260901020721 | 82 | 66 | 9.0 | 21.0 | 0.00 | 0.17 | 0.02 | 72 | 1015.5 |
| 20260901020453 | 82 | 59 | 9.0 | 20.0 | 0.00 | 0.17 | 0.02 | 71 | 1015.1 |
| 20260901015721 | 82 | 110 | 11.0 | 23.0 | 0.00 | 0.17 | 0.02 | 72 | 1015.1 |
| 20260901015221 | 82 | 74 | 8.0 | 23.0 | 0.00 | 0.17 | 0.02 | 72 | 1015.4 |
| 20260901014721 | 83 | 92 | 12.0 | 20.0 | 0.00 | 0.17 | 0.02 | 71 | 1015.0 |
| 20260901014231 | 83 | 57 | 6.0 | 19.0 | 0.00 | 0.17 | 0.02 | 71 | 1015.3 |
| 20260901014222 | 83 | 78 | 11.0 | 20.0 | 0.00 | 0.17 | 0.02 | 69 | 1015.3 |
| 20260901013221 | 83 | 84 | 10.0 | 20.0 | 0.00 | 0.17 | 0.02 | 71 | 1015.2 |
| 20260901012718 | 83 | 75 | 12.0 | 20.0 | 0.00 | 0.17 | 0.02 | 71 | 1015.4 |
| 20260901012219 | 82 | 74 | 6.0 | 15.0 | 0.00 | 0.17 | 0.02 | 72 | 1015.4 |
| 20260901011716 | 83 | 110 | 6.0 | 17.0 | 0.00 | 0.17 | 0.02 | 73 | 1015.4 |
| 20260901011216 | 83 | 100 | 6.0 | 21.0 | 0.00 | 0.17 | 0.02 | 73 | 1015.5 |
| 20260901010716 | 82 | 80 | 6.0 | 21.0 | 0.00 | 0.17 | 0.02 | 74 | 1015.3 |
| 20260901010215 | 82 | 62 | 12.0 | 23.0 | 0.00 | 0.17 | 0.02 | 72 | 1015.5 |
| 20260901005721 | 83 | 74 | 15.0 | 20.0 | 0.00 | 0.17 | 0.02 | 71 | 1015.6 |
| 20260901005715 | 82 | 88 | 9.0 | 23.0 | 0.00 | 0.17 | 0.02 | 72 | 1015.7 |
| 20260901004715 | 83 | 35 | 10.0 | 20.0 | 0.00 | 0.17 | 0.02 | 73 | 1015.6 |
| 20260901004446 | 83 | 67 | 9.0 | 19.0 | 0.00 | 0.17 | 0.02 | 72 | 1015.7 |
| 20260901003716 | 83 | 128 | 8.0 | 20.0 | 0.00 | 0.17 | 0.02 | 74 | 1015.4 |
| 20260901003222 | 83 | 42 | 6.0 | 20.0 | 0.00 | 0.17 | 0.02 | 72 | 1015.4 |
| 20260901003216 | 83 | 92 | 11.0 | 20.0 | 0.00 | 0.17 | 0.02 | 72 | 1015.3 |
| 20260901002447 | 83 | 81 | 12.0 | 23.0 | 0.00 | 0.17 | 0.02 | 71 | 1015.5 |
| 20260901001716 | 83 | 65 | 13.0 | 23.0 | 0.00 | 0.17 | 0.02 | 70 | 1015.6 |
| 20260901001217 | 83 | 64 | 8.0 | 23.0 | 0.00 | 0.17 | 0.02 | 71 | 1015.7 |
| 20260901000716 | 83 | 50 | 12.0 | 24.0 | 0.00 | 0.17 | 0.02 | 71 | 1015.9 |
| 20260901000215 | 83 | 64 | 14.0 | 24.0 | 0.00 | 0.17 | 0.02 | 71 | 1015.8 |
| 20260831235715 | 83 | 84 | 8.0 | 24.0 | 0.00 | 0.17 | 0.02 | 72 | 1015.9 |
| 20260831235215 | 83 | 59 | 11.0 | 20.0 | 0.00 | 0.17 | 0.02 | 71 | 1015.8 |
| 20260831234715 | 83 | 77 | 9.0 | 21.0 | 0.00 | 0.17 | 0.02 | 70 | 1016.1 |
| 20260831234216 | 83 | 50 | 13.0 | 21.0 | 0.00 | 0.17 | 0.02 | 71 | 1016.1 |
| 20260831233715 | 83 | 68 | 10.0 | 19.0 | 0.00 | 0.17 | 0.02 | 71 | 1016.2 |
| 20260831233216 | 83 | 75 | 15.0 | 20.0 | 0.00 | 0.17 | 0.02 | 70 | 1016.1 |
| 20260831232716 | 83 | 56 | 11.0 | 21.0 | 0.00 | 0.17 | 0.02 | 70 | 1016.3 |
| 20260831232216 | 83 | 41 | 12.0 | 21.0 | 0.00 | 0.17 | 0.02 | 70 | 1016.3 |
| 20260831231716 | 83 | 101 | 0.0 | 20.0 | 0.00 | 0.17 | 0.02 | 71 | 1016.4 |
| 20260831231216 | 83 | 90 | 14.0 | 21.0 | 0.00 | 0.17 | 0.02 | 71 | 1016.6 |
| 20260831230717 | 83 | 89 | 11.0 | 21.0 | 0.00 | 0.17 | 0.02 | 74 | 1016.7 |
| 20260831230215 | 83 | 98 | 7.0 | 23.0 | 0.00 | 0.17 | 0.02 | 71 | 1017.0 |
| 20260831225715 | 84 | 115 | 6.0 | 23.0 | 0.00 | 0.17 | 0.02 | 69 | 1016.8 |
| 20260831225215 | 83 | 90 | 6.0 | 19.0 | 0.00 | 0.17 | 0.02 | 70 | 1016.7 |
| 20260831224716 | 84 | 105 | 12.0 | 19.0 | 0.00 | 0.17 | 0.02 | 70 | 1016.9 |
| 20260831224215 | 84 | 75 | 11.0 | 23.0 | 0.00 | 0.17 | 0.02 | 71 | 1016.8 |
| 20260831223946 | 84 | 97 | 12.0 | 23.0 | 0.00 | 0.17 | 0.02 | 71 | 1017.1 |
| 20260831223215 | 84 | 114 | 8.0 | 17.0 | 0.00 | 0.17 | 0.02 | 70 | 1017.2 |
| 20260831222947 | 83 | 113 | 7.0 | 17.0 | 0.00 | 0.17 | 0.02 | 72 | 1017.1 |
| 20260831222215 | 84 | 110 | 8.0 | 20.0 | 0.00 | 0.17 | 0.02 | 70 | 1017.4 |
| 20260831221715 | 83 | 98 | 7.0 | 20.0 | 0.00 | 0.17 | 0.02 | 70 | 1017.2 |
| 20260831221215 | 84 | 73 | 10.0 | 17.0 | 0.00 | 0.17 | 0.02 | 71 | 1017.3 |
| 20260831220946 | 84 | 64 | 7.0 | 17.0 | 0.00 | 0.17 | 0.02 | 71 | 1017.3 |
| 20260831220215 | 84 | 88 | 10.0 | 19.0 | 0.00 | 0.17 | 0.02 | 71 | 1017.4 |
| 20260831215716 | 84 | 78 | 11.0 | 20.0 | 0.00 | 0.17 | 0.02 | 70 | 1017.3 |
| 20260831215216 | 83 | 82 | 6.0 | 20.0 | 0.00 | 0.17 | 0.02 | 71 | 1017.3 |
| 20260831214715 | 83 | 99 | 8.0 | 17.0 | 0.00 | 0.17 | 0.02 | 71 | 1017.5 |
| 20260831214216 | 83 | 87 | 6.0 | 17.0 | 0.00 | 0.17 | 0.02 | 71 | 1017.4 |
| 20260831213716 | 83 | 94 | 5.0 | 17.0 | 0.00 | 0.17 | 0.02 | 72 | 1017.6 |
| 20260831213216 | 83 | 69 | 6.0 | 20.0 | 0.00 | 0.17 | 0.02 | 71 | 1017.5 |
| 20260831212716 | 84 | 144 | 2.0 | 20.0 | 0.00 | 0.17 | 0.02 | 71 | 1017.7 |
| 20260831212447 | 83 | 132 | 8.0 | 20.0 | 0.00 | 0.17 | 0.02 | 71 | 1017.6 |
| 20260831211715 | 83 | 70 | 5.0 | 20.0 | 0.00 | 0.17 | 0.02 | 73 | 1017.8 |
| 20260831211215 | 83 | 102 | 6.0 | 21.0 | 0.00 | 0.17 | 0.02 | 72 | 1017.7 |
| 20260831210715 | 83 | 123 | 1.0 | 21.0 | 0.00 | 0.17 | 0.02 | 71 | 1017.8 |
| 20260831210215 | 83 | 91 | 10.0 | 19.0 | 0.00 | 0.17 | 0.02 | 71 | 1017.6 |
| 20260831205715 | 83 | 82 | 11.0 | 19.0 | 0.00 | 0.17 | 0.02 | 72 | 1017.5 |
| 20260831205447 | 83 | 91 | 11.0 | 19.0 | 0.00 | 0.17 | 0.02 | 72 | 1017.7 |
| 20260831204703 | 83 | 116 | 12.0 | 19.0 | 0.00 | 0.17 | 0.02 | 70 | 1017.5 |
| 20260831204203 | 82 | 105 | 12.0 | 17.0 | 0.00 | 0.17 | 0.02 | 71 | 1017.8 |
| 20260831203703 | 82 | 59 | 9.0 | 21.0 | 0.00 | 0.17 | 0.02 | 73 | 1017.8 |
| 20260831203204 | 82 | 128 | 10.0 | 21.0 | 0.00 | 0.17 | 0.02 | 71 | 1017.8 |
| 20260831202703 | 82 | 66 | 14.0 | 24.0 | 0.00 | 0.17 | 0.02 | 71 | 1017.9 |
| 20260831202203 | 82 | 100 | 6.0 | 24.0 | 0.00 | 0.17 | 0.02 | 74 | 1017.7 |
| 20260831201703 | 82 | 64 | 9.0 | 19.0 | 0.00 | 0.17 | 0.02 | 73 | 1017.7 |
| 20260831201204 | 82 | 118 | 9.0 | 24.0 | 0.00 | 0.17 | 0.02 | 73 | 1017.7 |
| 20260831200935 | 82 | 93 | 14.0 | 24.0 | 0.00 | 0.17 | 0.02 | 71 | 1017.5 |
| 20260831200436 | 82 | 120 | 13.0 | 23.0 | 0.00 | 0.17 | 0.02 | 72 | 1017.7 |
| 20260831195704 | 82 | 67 | 6.0 | 20.0 | 0.00 | 0.17 | 0.02 | 73 | 1017.5 |
| 20260831195204 | 82 | 83 | 11.0 | 21.0 | 0.00 | 0.17 | 0.02 | 72 | 1017.6 |
| 20260831194934 | 82 | 90 | 5.0 | 24.0 | 0.00 | 0.17 | 0.02 | 72 | 1017.6 |
| 20260831194204 | 81 | 76 | 15.0 | 21.0 | 0.00 | 0.17 | 0.02 | 73 | 1017.6 |
| 20260831193703 | 82 | 61 | 9.0 | 17.0 | 0.00 | 0.17 | 0.02 | 73 | 1017.4 |
| 20260831193205 | 82 | 94 | 7.0 | 19.0 | 0.00 | 0.17 | 0.02 | 75 | 1017.7 |
| 20260831192703 | 82 | 92 | 11.0 | 21.0 | 0.00 | 0.17 | 0.02 | 74 | 1017.7 |
| 20260831192203 | 81 | 138 | 8.0 | 21.0 | 0.00 | 0.17 | 0.02 | 74 | 1017.6 |
| 20260831191704 | 81 | 64 | 11.0 | 23.0 | 0.00 | 0.17 | 0.02 | 74 | 1017.5 |
| 20260831191204 | 81 | 76 | 4.0 | 23.0 | 0.00 | 0.17 | 0.02 | 75 | 1017.6 |
| 20260831190704 | 81 | 93 | 0.0 | 20.0 | 0.00 | 0.17 | 0.02 | 75 | 1017.8 |
| 20260831190203 | 81 | 101 | 5.0 | 20.0 | 0.00 | 0.17 | 0.02 | 76 | 1017.6 |
| 20260831185703 | 81 | 76 | 10.0 | 19.0 | 0.00 | 0.17 | 0.02 | 76 | 1017.5 |
| 20260831185203 | 81 | 90 | 8.0 | 19.0 | 0.00 | 0.17 | 0.02 | 75 | 1017.6 |
| 20260831184704 | 81 | 77 | 11.0 | 24.0 | 0.00 | 0.17 | 0.02 | 75 | 1017.6 |
| 20260831184204 | 80 | 72 | 5.0 | 24.0 | 0.00 | 0.17 | 0.02 | 75 | 1017.3 |
| 20260831183703 | 80 | 105 | 8.0 | 20.0 | 0.00 | 0.17 | 0.02 | 74 | 1017.5 |
| 20260831183311 | 80 | 96 | 8.0 | 23.0 | 0.00 | 0.17 | 0.02 | 75 | 1017.2 |
| 20260831183203 | 80 | 135 | 6.0 | 19.0 | 0.00 | 0.17 | 0.02 | 75 | 1017.5 |
| 20260831182935 | 80 | 88 | 11.0 | 20.0 | 0.00 | 0.17 | 0.02 | 74 | 1017.3 |
| 20260831181709 | 80 | 109 | 0.0 | 17.0 | 0.00 | 0.17 | 0.02 | 77 | 1017.1 |
| 20260831181703 | 80 | 55 | 11.0 | 23.0 | 0.00 | 0.17 | 0.02 | 75 | 1017.4 |
| 20260831180703 | 80 | 93 | 8.0 | 17.0 | 0.00 | 0.17 | 0.02 | 76 | 1017.4 |
| 20260831180203 | 80 | 61 | 0.0 | 17.0 | 0.00 | 0.17 | 0.02 | 76 | 1017.1 |
| 20260831175703 | 80 | 103 | 8.0 | 17.0 | 0.00 | 0.17 | 0.02 | 75 | 1017.2 |
| 20260831175203 | 79 | 46 | 6.0 | 19.0 | 0.00 | 0.17 | 0.02 | 76 | 1017.2 |
| 20260831174935 | 79 | 110 | 1.0 | 19.0 | 0.00 | 0.17 | 0.02 | 77 | 1017.2 |
| 20260831174204 | 79 | 52 | 9.0 | 19.0 | 0.00 | 0.17 | 0.02 | 77 | 1017.2 |
| 20260831173704 | 79 | 103 | 7.0 | 19.0 | 0.00 | 0.17 | 0.02 | 78 | 1017.1 |
| 20260831173153 | 79 | 101 | 14.0 | 19.0 | 0.00 | 0.17 | 0.02 | 78 | 1016.9 |
| 20260831172652 | 79 | 84 | 6.0 | 17.0 | 0.00 | 0.17 | 0.02 | 77 | 1016.9 |
| 20260831172152 | 79 | 92 | 0.0 | 21.0 | 0.00 | 0.17 | 0.02 | 77 | 1016.7 |
| 20260831171651 | 79 | 67 | 5.0 | 21.0 | 0.00 | 0.17 | 0.02 | 76 | 1017.0 |
| 20260831171152 | 79 | 96 | 8.0 | 21.0 | 0.00 | 0.17 | 0.02 | 77 | 1016.7 |
| 20260831170652 | 78 | 89 | 11.0 | 21.0 | 0.00 | 0.17 | 0.02 | 76 | 1016.5 |
| 20260831170424 | 78 | 123 | 10.0 | 19.0 | 0.00 | 0.17 | 0.02 | 76 | 1016.6 |
| 20260831165651 | 79 | 89 | 11.0 | 19.0 | 0.00 | 0.17 | 0.02 | 76 | 1016.6 |
| 20260831165139 | 79 | 88 | 9.0 | 21.0 | 0.00 | 0.17 | 0.02 | 77 | 1016.5 |
| 20260831164639 | 78 | 138 | 9.0 | 23.0 | 0.00 | 0.17 | 0.02 | 77 | 1016.6 |
| 20260831164140 | 78 | 75 | 11.0 | 23.0 | 0.00 | 0.17 | 0.02 | 78 | 1016.6 |
| 20260831163640 | 78 | 34 | 9.0 | 19.0 | 0.00 | 0.17 | 0.02 | 77 | 1016.5 |